Time,TemperatureF,DewpointF,PressureIn,WindDirection,WindDirectionDegrees,WindSpeedMPH,WindSpeedGustMPH,Humidity,HourlyPrecipIn,Conditions,Clouds,dailyrainin,SoftwareType,DateUTC
2013-02-26 00:00:00,25.5,21.4,30.27,NE,50,0.0,0.0,84,0.00,,---,0.00,VWS V14.01,2013-02-26 05:00:00,
2013-02-26 00:05:00,25.5,21.4,30.28,NE,50,0.0,0.0,84,0.00,,---,0.00,VWS V14.01,2013-02-26 05:05:00,
2013-02-26 00:10:00,25.7,21.3,30.28,NE,50,0.0,0.0,83,0.00,,---,0.00,VWS V14.01,2013-02-26 05:10:00,
2013-02-26 00:15:00,25.7,21.5,30.29,NE,50,0.0,0.0,84,0.00,,---,0.00,VWS V14.01,2013-02-26 05:15:00,
2013-02-26 00:20:00,25.7,21.5,30.28,NE,50,0.0,0.0,84,0.00,,---,0.00,VWS V14.01,2013-02-26 05:20:00,
2013-02-26 00:25:00,25.7,21.5,30.28,NE,50,0.0,0.0,84,0.00,,---,0.00,VWS V14.01,2013-02-26 05:25:00,
2013-02-26 00:30:00,25.8,21.9,30.27,NE,50,0.0,0.0,85,0.00,,---,0.00,VWS V14.01,2013-02-26 05:30:00,
2013-02-26 00:35:00,25.9,22.0,30.27,NE,50,0.0,0.0,85,0.00,,---,0.00,VWS V14.01,2013-02-26 05:35:00,
2013-02-26 00:40:00,26.0,22.1,30.27,NE,50,0.0,0.0,85,0.00,,---,0.00,VWS V14.01,2013-02-26 05:40:00,
2013-02-26 00:45:00,26.0,21.8,30.27,NE,50,0.0,0.0,84,0.00,,---,0.00,VWS V14.01,2013-02-26 05:45:00,
2013-02-26 00:50:00,26.0,22.1,30.27,NE,50,0.0,0.0,85,0.00,,---,0.00,VWS V14.01,2013-02-26 05:50:00,
2013-02-26 00:55:00,26.0,22.1,30.28,NE,50,0.0,0.0,85,0.00,,---,0.00,VWS V14.01,2013-02-26 05:55:00,
2013-02-26 01:00:00,26.1,22.5,30.28,NE,50,0.0,0.0,86,0.00,,---,0.00,VWS V14.01,2013-02-26 06:00:00,
2013-02-26 01:05:00,26.2,22.3,30.28,NE,50,0.0,0.0,85,0.00,,---,0.00,VWS V14.01,2013-02-26 06:05:00,
2013-02-26 01:10:00,26.3,22.4,30.28,NE,50,0.0,0.0,85,0.00,,---,0.00,VWS V14.01,2013-02-26 06:10:00,
2013-02-26 01:15:00,26.5,22.6,30.28,NE,50,0.0,0.0,85,0.00,,---,0.00,VWS V14.01,2013-02-26 06:15:00,
2013-02-26 01:20:00,26.7,22.8,30.27,NE,50,0.0,0.0,85,0.00,,---,0.00,VWS V14.01,2013-02-26 06:20:00,
2013-02-26 01:25:00,26.7,22.5,30.28,NE,50,0.0,0.0,84,0.00,,---,0.00,VWS V14.01,2013-02-26 06:25:00,
2013-02-26 01:30:00,26.9,23.0,30.27,NE,50,0.0,1.0,85,0.00,,---,0.00,VWS V14.01,2013-02-26 06:30:00,
2013-02-26 01:35:00,27.1,22.9,30.27,NE,50,0.0,1.0,84,0.00,,---,0.00,VWS V14.01,2013-02-26 06:35:00,
2013-02-26 01:40:00,27.3,23.1,30.26,NE,50,0.0,1.0,84,0.00,,---,0.00,VWS V14.01,2013-02-26 06:40:00,
2013-02-26 01:45:00,27.3,23.1,30.27,NE,50,0.0,0.0,84,0.00,,---,0.00,VWS V14.01,2013-02-26 06:45:00,
2013-02-26 01:50:00,27.3,23.1,30.26,NE,50,0.0,0.0,84,0.00,,---,0.00,VWS V14.01,2013-02-26 06:50:00,
2013-02-26 01:55:00,27.4,23.2,30.26,NE,50,0.0,1.0,84,0.00,,---,0.00,VWS V14.01,2013-02-26 06:55:00,
2013-02-26 02:00:00,27.4,22.9,30.26,NE,50,0.0,0.0,83,0.00,,---,0.00,VWS V14.01,2013-02-26 07:00:00,
2013-02-26 02:05:00,27.4,22.6,30.26,NE,50,0.0,0.0,82,0.00,,---,0.00,VWS V14.01,2013-02-26 07:05:00,
2013-02-26 02:10:00,27.6,23.1,30.26,NE,50,0.0,0.0,83,0.00,,---,0.00,VWS V14.01,2013-02-26 07:10:00,
2013-02-26 02:15:00,27.6,23.1,30.25,NE,50,0.0,0.0,83,0.00,,---,0.00,VWS V14.01,2013-02-26 07:15:00,
2013-02-26 02:20:00,27.6,23.1,30.25,NE,50,0.0,0.0,83,0.00,,---,0.00,VWS V14.01,2013-02-26 07:20:00,
2013-02-26 02:25:00,27.5,23.3,30.25,NE,50,0.0,0.0,84,0.00,,---,0.00,VWS V14.01,2013-02-26 07:25:00,
2013-02-26 02:30:00,27.5,23.3,30.24,NE,50,0.0,0.0,84,0.00,,---,0.00,VWS V14.01,2013-02-26 07:30:00,
2013-02-26 02:35:00,27.5,23.6,30.24,NE,50,0.0,0.0,85,0.00,,---,0.00,VWS V14.01,2013-02-26 07:35:00,
2013-02-26 02:40:00,27.5,23.6,30.24,NE,50,0.0,0.0,85,0.00,,---,0.00,VWS V14.01,2013-02-26 07:40:00,
2013-02-26 02:45:00,27.6,23.4,30.24,NE,50,0.0,0.0,84,0.00,,---,0.00,VWS V14.01,2013-02-26 07:45:00,
2013-02-26 02:50:00,27.6,23.7,30.24,NE,50,0.0,0.0,85,0.00,,---,0.00,VWS V14.01,2013-02-26 07:50:00,
2013-02-26 02:55:00,27.7,23.8,30.23,NE,50,0.0,0.0,85,0.00,,---,0.00,VWS V14.01,2013-02-26 07:55:00,
2013-02-26 03:00:00,27.7,23.5,30.23,NE,50,0.0,0.0,84,0.00,,---,0.00,VWS V14.01,2013-02-26 08:00:00,
2013-02-26 03:05:00,27.8,23.3,30.23,NE,50,0.0,0.0,83,0.00,,---,0.00,VWS V14.01,2013-02-26 08:05:00,
2013-02-26 03:10:00,27.9,23.7,30.24,NE,50,0.0,0.0,84,0.00,,---,0.00,VWS V14.01,2013-02-26 08:10:00,
2013-02-26 03:15:00,28.1,23.9,30.24,NE,50,0.0,0.0,84,0.00,,---,0.00,VWS V14.01,2013-02-26 08:15:00,
2013-02-26 03:20:00,28.3,24.1,30.24,NE,50,0.0,0.0,84,0.00,,---,0.00,VWS V14.01,2013-02-26 08:20:00,
2013-02-26 03:25:00,28.6,24.4,30.23,NE,50,0.0,0.0,84,0.00,,---,0.00,VWS V14.01,2013-02-26 08:25:00,
2013-02-26 03:30:00,28.9,24.4,30.23,NE,50,0.0,0.0,83,0.00,,---,0.00,VWS V14.01,2013-02-26 08:30:00,
2013-02-26 03:35:00,29.3,24.5,30.22,NE,50,2.0,2.0,82,0.00,,---,0.00,VWS V14.01,2013-02-26 08:35:00,
2013-02-26 03:40:00,29.8,24.1,30.21,NNE,19,3.0,4.0,79,0.00,,---,0.00,VWS V14.01,2013-02-26 08:40:00,
2013-02-26 03:45:00,30.5,23.2,30.21,NNE,21,1.0,2.0,74,0.00,,---,0.00,VWS V14.01,2013-02-26 08:45:00,
2013-02-26 03:50:00,31.1,22.8,30.21,NNE,21,0.0,3.0,71,0.00,,---,0.00,VWS V14.01,2013-02-26 08:50:00,
2013-02-26 03:55:00,31.4,23.1,30.21,NNE,21,0.0,3.0,71,0.00,,---,0.00,VWS V14.01,2013-02-26 08:55:00,
2013-02-26 04:00:00,31.5,22.9,30.21,NNE,21,0.0,0.0,70,0.00,,---,0.00,VWS V14.01,2013-02-26 09:00:00,
2013-02-26 04:05:00,31.7,22.7,30.22,NNE,21,0.0,0.0,69,0.00,,---,0.00,VWS V14.01,2013-02-26 09:05:00,
2013-02-26 04:10:00,32.0,23.0,30.23,NNE,21,0.0,2.0,69,0.00,,---,0.00,VWS V14.01,2013-02-26 09:10:00,
2013-02-26 04:15:00,32.3,23.3,30.23,NNE,21,0.0,0.0,69,0.00,,---,0.00,VWS V14.01,2013-02-26 09:15:00,
2013-02-26 04:20:00,32.3,23.6,30.22,NNE,21,1.0,2.0,70,0.00,,---,0.00,VWS V14.01,2013-02-26 09:20:00,
2013-02-26 04:25:00,32.1,23.8,30.22,NNE,21,1.0,2.0,71,0.00,,---,0.00,VWS V14.01,2013-02-26 09:25:00,
2013-02-26 04:30:00,32.1,23.1,30.21,NNE,21,1.0,1.0,69,0.00,,---,0.00,VWS V14.01,2013-02-26 09:30:00,
2013-02-26 04:35:00,32.2,23.5,30.20,NNE,21,0.0,2.0,70,0.00,,---,0.00,VWS V14.01,2013-02-26 09:35:00,
2013-02-26 04:40:00,32.3,23.3,30.20,NNE,21,0.0,2.0,69,0.00,,---,0.00,VWS V14.01,2013-02-26 09:40:00,
2013-02-26 04:45:00,32.5,23.1,30.20,NNE,21,0.0,2.0,68,0.00,,---,0.00,VWS V14.01,2013-02-26 09:45:00,
2013-02-26 04:50:00,32.6,22.5,30.21,NNE,21,0.0,2.0,66,0.00,,---,0.00,VWS V14.01,2013-02-26 09:50:00,
2013-02-26 04:55:00,32.8,22.3,30.21,NNE,21,0.0,2.0,65,0.00,,---,0.00,VWS V14.01,2013-02-26 09:55:00,
2013-02-26 05:00:00,32.9,22.8,30.21,NNE,21,0.0,0.0,66,0.00,,---,0.00,VWS V14.01,2013-02-26 10:00:00,
2013-02-26 05:05:00,33.0,22.2,30.21,NNE,21,0.0,1.0,64,0.00,,---,0.00,VWS V14.01,2013-02-26 10:05:00,
2013-02-26 05:10:00,33.1,23.0,30.22,NNE,21,0.0,1.0,66,0.00,,---,0.00,VWS V14.01,2013-02-26 10:10:00,
2013-02-26 05:15:00,33.1,22.6,30.22,NNE,21,0.0,0.0,65,0.00,,---,0.00,VWS V14.01,2013-02-26 10:15:00,
2013-02-26 05:20:00,33.2,22.4,30.22,NNE,21,0.0,0.0,64,0.00,,---,0.00,VWS V14.01,2013-02-26 10:20:00,
2013-02-26 05:25:00,33.3,22.5,30.22,NNE,21,0.0,0.0,64,0.00,,---,0.00,VWS V14.01,2013-02-26 10:25:00,
2013-02-26 05:30:00,33.4,24.0,30.23,NNE,21,0.0,0.0,68,0.00,,---,0.00,VWS V14.01,2013-02-26 10:30:00,
2013-02-26 05:35:00,33.3,23.5,30.23,NNE,21,0.0,0.0,67,0.00,,---,0.00,VWS V14.01,2013-02-26 10:35:00,
2013-02-26 05:40:00,33.4,23.3,30.22,ESE,112,0.0,3.0,66,0.00,,---,0.00,VWS V14.01,2013-02-26 10:40:00,
2013-02-26 05:45:00,33.5,24.4,30.22,NNE,24,3.0,3.0,69,0.00,,---,0.00,VWS V14.01,2013-02-26 10:45:00,
2013-02-26 05:50:00,33.4,24.0,30.21,NE,36,0.0,3.0,68,0.00,,---,0.00,VWS V14.01,2013-02-26 10:50:00,
2013-02-26 05:55:00,33.4,23.3,30.22,ESE,119,1.0,3.0,66,0.00,,---,0.00,VWS V14.01,2013-02-26 10:55:00,
2013-02-26 06:00:00,33.5,23.0,30.21,ESE,119,0.0,0.0,65,0.00,,---,0.00,VWS V14.01,2013-02-26 11:00:00,
2013-02-26 06:05:00,33.6,23.8,30.20,ESE,103,0.0,2.0,67,0.00,,---,0.00,VWS V14.01,2013-02-26 11:05:00,
2013-02-26 06:10:00,33.6,23.5,30.21,ESE,105,0.0,2.0,66,0.00,,---,0.00,VWS V14.01,2013-02-26 11:10:00,
2013-02-26 06:15:00,33.7,22.8,30.21,NE,46,0.0,0.0,64,0.00,,---,0.00,VWS V14.01,2013-02-26 11:15:00,
2013-02-26 06:20:00,33.8,22.9,30.21,NE,46,0.0,1.0,64,0.00,,---,0.00,VWS V14.01,2013-02-26 11:20:00,
2013-02-26 06:25:00,33.9,23.0,30.21,NE,46,0.0,1.0,64,0.00,,---,0.00,VWS V14.01,2013-02-26 11:25:00,
2013-02-26 06:30:00,34.0,23.1,30.21,East,80,0.0,2.0,64,0.00,,---,0.00,VWS V14.01,2013-02-26 11:30:00,
2013-02-26 06:35:00,34.0,23.5,30.20,NE,46,0.0,3.0,65,0.00,,---,0.00,VWS V14.01,2013-02-26 11:35:00,
2013-02-26 06:40:00,34.0,23.1,30.20,ENE,71,1.0,4.0,64,0.00,,---,0.00,VWS V14.01,2013-02-26 11:40:00,
2013-02-26 06:45:00,34.0,23.5,30.19,East,81,1.0,3.0,65,0.00,,---,0.00,VWS V14.01,2013-02-26 11:45:00,
2013-02-26 06:50:00,34.0,23.1,30.19,East,96,0.0,5.0,64,0.00,,---,0.00,VWS V14.01,2013-02-26 11:50:00,
2013-02-26 06:55:00,34.1,23.2,30.20,NNE,25,0.0,5.0,64,0.00,,---,0.00,VWS V14.01,2013-02-26 11:55:00,
2013-02-26 07:00:00,34.1,23.6,30.19,NNE,24,4.0,5.0,65,0.00,,---,0.00,VWS V14.01,2013-02-26 12:00:00,
2013-02-26 07:05:00,34.1,23.6,30.19,NE,36,1.0,6.0,65,0.00,,---,0.00,VWS V14.01,2013-02-26 12:05:00,
2013-02-26 07:10:00,34.1,23.6,30.19,ESE,108,2.0,6.0,65,0.00,,---,0.00,VWS V14.01,2013-02-26 12:10:00,
2013-02-26 07:15:00,34.1,23.2,30.19,NNE,18,3.0,3.0,64,0.00,,---,0.00,VWS V14.01,2013-02-26 12:15:00,
2013-02-26 07:20:00,34.1,23.2,30.19,North,9,4.0,6.0,64,0.00,,---,0.00,VWS V14.01,2013-02-26 12:20:00,
2013-02-26 07:25:00,34.1,23.6,30.18,NNE,17,3.0,6.0,65,0.00,,---,0.00,VWS V14.01,2013-02-26 12:25:00,
2013-02-26 07:30:00,34.1,23.6,30.18,North,8,3.0,4.0,65,0.00,,---,0.00,VWS V14.01,2013-02-26 12:30:00,
2013-02-26 07:35:00,34.1,23.6,30.18,NNE,21,2.0,5.0,65,0.00,,---,0.00,VWS V14.01,2013-02-26 12:35:00,
2013-02-26 07:40:00,34.1,23.6,30.18,SE,131,0.0,7.0,65,0.00,,---,0.00,VWS V14.01,2013-02-26 12:40:00,
2013-02-26 07:45:00,34.1,23.6,30.18,NE,46,2.0,5.0,65,0.00,,---,0.00,VWS V14.01,2013-02-26 12:45:00,
2013-02-26 07:50:00,34.1,24.0,30.18,NNE,17,5.0,5.0,66,0.00,,---,0.00,VWS V14.01,2013-02-26 12:50:00,
2013-02-26 07:55:00,34.2,24.4,30.18,NNE,31,3.0,6.0,67,0.00,,---,0.00,VWS V14.01,2013-02-26 12:55:00,
2013-02-26 08:00:00,34.2,24.4,30.18,NE,46,1.0,2.0,67,0.00,,---,0.00,VWS V14.01,2013-02-26 13:00:00,
2013-02-26 08:05:00,34.2,24.4,30.18,SE,132,2.0,3.0,67,0.00,,---,0.00,VWS V14.01,2013-02-26 13:05:00,
2013-02-26 08:10:00,34.3,24.1,30.18,SE,131,0.0,5.0,66,0.00,,---,0.00,VWS V14.01,2013-02-26 13:10:00,
2013-02-26 08:15:00,34.4,24.6,30.19,ESE,110,1.0,3.0,67,0.00,,---,0.00,VWS V14.01,2013-02-26 13:15:00,
2013-02-26 08:20:00,34.5,24.7,30.18,NNE,24,3.0,4.0,67,0.00,,---,0.00,VWS V14.01,2013-02-26 13:20:00,
2013-02-26 08:25:00,34.5,25.4,30.19,NNE,18,0.0,4.0,69,0.00,,---,0.00,VWS V14.01,2013-02-26 13:25:00,
2013-02-26 08:30:00,34.4,25.3,30.19,ENE,71,0.0,2.0,69,0.00,,---,0.00,VWS V14.01,2013-02-26 13:30:00,
2013-02-26 08:35:00,34.4,26.3,30.18,ENE,69,0.0,3.0,72,0.00,,---,0.00,VWS V14.01,2013-02-26 13:35:00,
2013-02-26 08:40:00,34.2,26.1,30.18,NNE,19,0.0,3.0,72,0.00,,---,0.00,VWS V14.01,2013-02-26 13:40:00,
2013-02-26 08:45:00,33.9,26.8,30.17,NNE,24,5.0,5.0,75,0.01,,---,0.01,VWS V14.01,2013-02-26 13:45:00,
2013-02-26 08:50:00,33.6,26.9,30.17,NNE,18,7.0,9.0,76,0.01,,---,0.01,VWS V14.01,2013-02-26 13:50:00,
2013-02-26 08:55:00,33.4,27.3,30.16,NNE,16,6.0,9.0,78,0.01,,---,0.01,VWS V14.01,2013-02-26 13:55:00,
2013-02-26 09:00:00,33.3,27.8,30.16,NNE,14,4.0,6.0,80,0.01,,---,0.01,VWS V14.01,2013-02-26 14:00:00,
2013-02-26 09:05:00,33.2,27.7,30.16,NNE,23,2.0,7.0,80,0.01,,---,0.01,VWS V14.01,2013-02-26 14:05:00,
2013-02-26 09:10:00,33.1,28.2,30.15,SE,139,1.0,7.0,82,0.02,,---,0.02,VWS V14.01,2013-02-26 14:10:00,
2013-02-26 09:15:00,33.1,27.9,30.15,SE,127,0.0,3.0,81,0.02,,---,0.02,VWS V14.01,2013-02-26 14:15:00,
2013-02-26 09:20:00,33.0,28.1,30.14,ENE,68,2.0,6.0,82,0.03,,---,0.03,VWS V14.01,2013-02-26 14:20:00,
2013-02-26 09:25:00,33.0,28.4,30.14,NE,50,2.0,6.0,83,0.03,,---,0.03,VWS V14.01,2013-02-26 14:25:00,
2013-02-26 09:30:00,32.9,28.3,30.14,ESE,105,0.0,3.0,83,0.04,,---,0.04,VWS V14.01,2013-02-26 14:30:00,
2013-02-26 09:35:00,32.9,28.6,30.13,ESE,115,1.0,4.0,84,0.04,,---,0.04,VWS V14.01,2013-02-26 14:35:00,
2013-02-26 09:40:00,32.8,28.5,30.13,NNE,18,3.0,7.0,84,0.05,,---,0.05,VWS V14.01,2013-02-26 14:40:00,
2013-02-26 09:45:00,32.8,28.8,30.13,North,6,2.0,3.0,85,0.04,,---,0.05,VWS V14.01,2013-02-26 14:45:00,
2013-02-26 09:50:00,32.8,28.8,30.13,NNE,19,5.0,6.0,85,0.05,,---,0.06,VWS V14.01,2013-02-26 14:50:00,
2013-02-26 09:55:00,32.8,28.8,30.13,NNE,17,7.0,8.0,85,0.05,,---,0.06,VWS V14.01,2013-02-26 14:55:00,
2013-02-26 10:00:00,32.8,29.1,30.14,NE,36,1.0,3.0,86,0.06,,---,0.07,VWS V14.01,2013-02-26 15:00:00,
2013-02-26 10:05:00,32.7,29.0,30.13,North,359,1.0,6.0,86,0.06,,---,0.07,VWS V14.01,2013-02-26 15:05:00,
2013-02-26 10:10:00,32.7,29.0,30.12,North,3,6.0,8.0,86,0.08,,---,0.09,VWS V14.01,2013-02-26 15:10:00,
2013-02-26 10:15:00,32.7,29.0,30.12,SE,134,3.0,4.0,86,0.07,,---,0.09,VWS V14.01,2013-02-26 15:15:00,
2013-02-26 10:20:00,32.7,29.3,30.11,SSE,163,1.0,8.0,87,0.09,,---,0.11,VWS V14.01,2013-02-26 15:20:00,
2013-02-26 10:25:00,32.7,29.3,30.11,North,10,5.0,8.0,87,0.10,,---,0.12,VWS V14.01,2013-02-26 15:25:00,
2013-02-26 10:30:00,32.7,29.5,30.10,NNE,27,0.0,5.0,88,0.10,,---,0.13,VWS V14.01,2013-02-26 15:30:00,
2013-02-26 10:35:00,32.8,29.6,30.11,ESE,123,2.0,6.0,88,0.10,,---,0.13,VWS V14.01,2013-02-26 15:35:00,
2013-02-26 10:40:00,32.8,29.6,30.10,NE,36,5.0,7.0,88,0.10,,---,0.13,VWS V14.01,2013-02-26 15:40:00,
2013-02-26 10:45:00,32.8,29.6,30.09,NNE,17,7.0,9.0,88,0.09,,---,0.14,VWS V14.01,2013-02-26 15:45:00,
2013-02-26 10:50:00,32.9,30.0,30.09,North,357,2.0,9.0,89,0.10,,---,0.15,VWS V14.01,2013-02-26 15:50:00,
2013-02-26 10:55:00,32.9,30.0,30.08,ENE,59,0.0,9.0,89,0.10,,---,0.15,VWS V14.01,2013-02-26 15:55:00,
2013-02-26 11:00:00,32.9,30.0,30.08,NE,36,1.0,6.0,89,0.08,,---,0.15,VWS V14.01,2013-02-26 16:00:00,
2013-02-26 11:05:00,33.0,30.4,30.07,North,8,4.0,7.0,90,0.09,,---,0.16,VWS V14.01,2013-02-26 16:05:00,
2013-02-26 11:10:00,33.0,30.4,30.07,NNE,23,2.0,9.0,90,0.10,,---,0.17,VWS V14.01,2013-02-26 16:10:00,
2013-02-26 11:15:00,33.0,30.1,30.06,North,4,4.0,6.0,89,0.08,,---,0.17,VWS V14.01,2013-02-26 16:15:00,
2013-02-26 11:20:00,33.0,30.4,30.05,NNE,28,6.0,7.0,90,0.08,,---,0.17,VWS V14.01,2013-02-26 16:20:00,
2013-02-26 11:25:00,33.1,30.5,30.04,North,359,6.0,7.0,90,0.08,,---,0.17,VWS V14.01,2013-02-26 16:25:00,
2013-02-26 11:30:00,33.3,31.0,30.03,NNE,17,2.0,5.0,91,0.04,,---,0.17,VWS V14.01,2013-02-26 16:30:00,
2013-02-26 11:35:00,33.5,31.2,30.03,NNE,23,5.0,6.0,91,0.05,,---,0.18,VWS V14.01,2013-02-26 16:35:00,
2013-02-26 11:40:00,33.7,31.4,30.03,NNE,19,6.0,7.0,91,0.05,,---,0.18,VWS V14.01,2013-02-26 16:40:00,
2013-02-26 11:45:00,34.0,31.6,30.01,ENE,65,3.0,4.0,91,0.04,,---,0.18,VWS V14.01,2013-02-26 16:45:00,
2013-02-26 11:50:00,34.3,32.2,30.00,North,2,3.0,6.0,92,0.05,,---,0.19,VWS V14.01,2013-02-26 16:50:00,
2013-02-26 11:55:00,34.5,32.2,30.00,ENE,57,1.0,6.0,91,0.06,,---,0.20,VWS V14.01,2013-02-26 16:55:00,
2013-02-26 12:00:00,34.7,32.6,30.00,North,6,2.0,3.0,92,0.07,,---,0.22,VWS V14.01,2013-02-26 17:00:00,
2013-02-26 12:05:00,34.8,32.7,30.00,ENE,73,3.0,3.0,92,0.08,,---,0.23,VWS V14.01,2013-02-26 17:05:00,
2013-02-26 12:10:00,34.9,32.8,29.99,East,85,0.0,4.0,92,0.09,,---,0.24,VWS V14.01,2013-02-26 17:10:00,
2013-02-26 12:15:00,35.0,32.9,30.00,North,350,3.0,3.0,92,0.08,,---,0.25,VWS V14.01,2013-02-26 17:15:00,
2013-02-26 12:20:00,35.0,32.9,29.98,NNE,16,3.0,6.0,92,0.09,,---,0.26,VWS V14.01,2013-02-26 17:20:00,
2013-02-26 12:25:00,35.0,32.9,29.98,North,1,2.0,6.0,92,0.10,,---,0.27,VWS V14.01,2013-02-26 17:25:00,
2013-02-26 12:30:00,35.0,32.9,29.98,East,80,0.0,1.0,92,0.11,,---,0.28,VWS V14.01,2013-02-26 17:30:00,
2013-02-26 12:35:00,35.1,33.0,29.98,East,90,0.0,3.0,92,0.12,,---,0.29,VWS V14.01,2013-02-26 17:35:00,
2013-02-26 12:40:00,35.3,33.5,29.97,ESE,109,0.0,3.0,93,0.13,,---,0.30,VWS V14.01,2013-02-26 17:40:00,
2013-02-26 12:45:00,35.5,33.7,29.97,ESE,112,1.0,1.0,93,0.13,,---,0.31,VWS V14.01,2013-02-26 17:45:00,
2013-02-26 12:50:00,35.7,33.9,29.96,NE,53,0.0,3.0,93,0.13,,---,0.31,VWS V14.01,2013-02-26 17:50:00,
2013-02-26 12:55:00,35.9,34.1,29.96,SE,137,0.0,6.0,93,0.14,,---,0.32,VWS V14.01,2013-02-26 17:55:00,
2013-02-26 13:00:00,35.9,34.1,29.96,SSE,149,2.0,4.0,93,0.12,,---,0.33,VWS V14.01,2013-02-26 18:00:00,
2013-02-26 13:05:00,35.9,34.1,29.95,NE,36,0.0,4.0,93,0.13,,---,0.34,VWS V14.01,2013-02-26 18:05:00,
2013-02-26 13:10:00,35.9,34.1,29.95,SE,144,0.0,4.0,93,0.14,,---,0.35,VWS V14.01,2013-02-26 18:10:00,
2013-02-26 13:15:00,36.0,34.2,29.94,ESE,111,1.0,3.0,93,0.12,,---,0.37,VWS V14.01,2013-02-26 18:15:00,
2013-02-26 13:20:00,36.1,34.3,29.94,SSE,148,3.0,6.0,93,0.14,,---,0.39,VWS V14.01,2013-02-26 18:20:00,
2013-02-26 13:25:00,36.1,34.3,29.93,NE,41,7.0,9.0,93,0.15,,---,0.40,VWS V14.01,2013-02-26 18:25:00,
2013-02-26 13:30:00,36.2,34.4,29.93,ENE,58,2.0,2.0,93,0.13,,---,0.41,VWS V14.01,2013-02-26 18:30:00,
2013-02-26 13:35:00,36.3,34.5,29.92,North,2,6.0,6.0,93,0.13,,---,0.41,VWS V14.01,2013-02-26 18:35:00,
2013-02-26 13:40:00,36.4,34.6,29.92,ENE,69,2.0,7.0,93,0.14,,---,0.42,VWS V14.01,2013-02-26 18:40:00,
2013-02-26 13:45:00,36.5,34.7,29.91,ESE,110,2.0,2.0,93,0.13,,---,0.43,VWS V14.01,2013-02-26 18:45:00,
2013-02-26 13:50:00,36.7,34.9,29.90,NNE,31,0.0,3.0,93,0.14,,---,0.44,VWS V14.01,2013-02-26 18:50:00,
2013-02-26 13:55:00,36.9,35.1,29.90,ESE,113,0.0,6.0,93,0.14,,---,0.44,VWS V14.01,2013-02-26 18:55:00,
2013-02-26 14:00:00,37.0,35.2,29.90,East,86,4.0,4.0,93,0.12,,---,0.45,VWS V14.01,2013-02-26 19:00:00,
2013-02-26 14:05:00,37.1,35.3,29.88,SSE,168,2.0,8.0,93,0.12,,---,0.45,VWS V14.01,2013-02-26 19:05:00,
2013-02-26 14:10:00,37.2,35.4,29.88,SE,139,1.0,8.0,93,0.13,,---,0.46,VWS V14.01,2013-02-26 19:10:00,
2013-02-26 14:15:00,37.3,35.5,29.88,NNE,29,3.0,3.0,93,0.10,,---,0.47,VWS V14.01,2013-02-26 19:15:00,
2013-02-26 14:20:00,37.4,35.6,29.87,NE,54,1.0,7.0,93,0.10,,---,0.47,VWS V14.01,2013-02-26 19:20:00,
2013-02-26 14:25:00,37.5,35.7,29.86,ESE,111,2.0,7.0,93,0.12,,---,0.49,VWS V14.01,2013-02-26 19:25:00,
2013-02-26 14:30:00,37.6,35.8,29.86,ESE,110,2.0,6.0,93,0.09,,---,0.50,VWS V14.01,2013-02-26 19:30:00,
2013-02-26 14:35:00,37.7,35.9,29.85,North,1,3.0,6.0,93,0.10,,---,0.51,VWS V14.01,2013-02-26 19:35:00,
2013-02-26 14:40:00,37.7,35.9,29.85,NNE,13,3.0,8.0,93,0.10,,---,0.51,VWS V14.01,2013-02-26 19:40:00,
2013-02-26 14:45:00,37.8,36.0,29.85,East,99,0.0,3.0,93,0.09,,---,0.52,VWS V14.01,2013-02-26 19:45:00,
2013-02-26 14:50:00,37.8,36.0,29.85,ESE,112,1.0,5.0,93,0.09,,---,0.52,VWS V14.01,2013-02-26 19:50:00,
2013-02-26 14:55:00,37.8,36.0,29.84,NNE,24,3.0,7.0,93,0.10,,---,0.53,VWS V14.01,2013-02-26 19:55:00,
2013-02-26 15:00:00,37.8,36.0,29.84,NNE,27,2.0,5.0,93,0.08,,---,0.53,VWS V14.01,2013-02-26 20:00:00,
2013-02-26 15:05:00,37.9,36.1,29.84,South,175,1.0,7.0,93,0.08,,---,0.53,VWS V14.01,2013-02-26 20:05:00,
2013-02-26 15:10:00,38.0,36.2,29.82,NNE,19,3.0,7.0,93,0.09,,---,0.54,VWS V14.01,2013-02-26 20:10:00,
2013-02-26 15:15:00,38.0,36.2,29.81,North,355,2.0,6.0,93,0.08,,---,0.55,VWS V14.01,2013-02-26 20:15:00,
2013-02-26 15:20:00,38.0,36.2,29.80,NE,46,2.0,9.0,93,0.08,,---,0.55,VWS V14.01,2013-02-26 20:20:00,
2013-02-26 15:25:00,38.0,36.2,29.80,SSE,165,1.0,9.0,93,0.09,,---,0.56,VWS V14.01,2013-02-26 20:25:00,
2013-02-26 15:30:00,37.9,36.1,29.78,North,11,4.0,4.0,93,0.08,,---,0.57,VWS V14.01,2013-02-26 20:30:00,
2013-02-26 15:35:00,37.9,36.1,29.79,NNE,30,6.0,10.0,93,0.08,,---,0.57,VWS V14.01,2013-02-26 20:35:00,
2013-02-26 15:40:00,37.9,36.1,29.79,NNE,20,4.0,11.0,93,0.09,,---,0.58,VWS V14.01,2013-02-26 20:40:00,
2013-02-26 15:45:00,38.0,36.2,29.78,North,4,4.0,6.0,93,0.07,,---,0.59,VWS V14.01,2013-02-26 20:45:00,
2013-02-26 15:50:00,38.0,36.2,29.78,NE,36,3.0,7.0,93,0.07,,---,0.59,VWS V14.01,2013-02-26 20:50:00,
2013-02-26 15:55:00,38.0,36.2,29.77,North,11,1.0,7.0,93,0.07,,---,0.59,VWS V14.01,2013-02-26 20:55:00,
2013-02-26 16:00:00,38.1,36.3,29.76,NNE,18,7.0,8.0,93,0.07,,---,0.60,VWS V14.01,2013-02-26 21:00:00,
2013-02-26 16:05:00,38.1,36.3,29.76,ENE,73,0.0,10.0,93,0.07,,---,0.60,VWS V14.01,2013-02-26 21:05:00,
2013-02-26 16:10:00,38.2,36.4,29.75,East,82,1.0,10.0,93,0.09,,---,0.62,VWS V14.01,2013-02-26 21:10:00,
2013-02-26 16:15:00,38.2,36.4,29.75,NNE,27,2.0,3.0,93,0.08,,---,0.63,VWS V14.01,2013-02-26 21:15:00,
2013-02-26 16:20:00,38.3,36.5,29.74,NNE,12,4.0,12.0,93,0.08,,---,0.63,VWS V14.01,2013-02-26 21:20:00,
2013-02-26 16:25:00,38.4,36.6,29.76,ESE,122,2.0,12.0,93,0.08,,---,0.63,VWS V14.01,2013-02-26 21:25:00,
2013-02-26 16:30:00,38.4,36.6,29.76,ESE,115,0.0,1.0,93,0.08,,---,0.65,VWS V14.01,2013-02-26 21:30:00,
2013-02-26 16:35:00,38.5,36.7,29.77,WNW,282,0.0,5.0,93,0.12,,---,0.69,VWS V14.01,2013-02-26 21:35:00,
2013-02-26 16:40:00,38.6,37.0,29.76,NE,36,5.0,8.0,94,0.14,,---,0.71,VWS V14.01,2013-02-26 21:40:00,
2013-02-26 16:45:00,38.7,37.1,29.76,ESE,122,0.0,1.0,94,0.14,,---,0.73,VWS V14.01,2013-02-26 21:45:00,
2013-02-26 16:50:00,38.8,37.2,29.76,NNE,28,2.0,8.0,94,0.15,,---,0.74,VWS V14.01,2013-02-26 21:50:00,
2013-02-26 16:55:00,39.0,37.2,29.76,NNE,21,4.0,8.0,93,0.16,,---,0.75,VWS V14.01,2013-02-26 21:55:00,
2013-02-26 17:00:00,39.1,37.2,29.76,NE,36,0.0,3.0,93,0.15,,---,0.75,VWS V14.01,2013-02-26 22:00:00,
2013-02-26 17:05:00,39.1,37.2,29.77,North,8,1.0,3.0,93,0.15,,---,0.75,VWS V14.01,2013-02-26 22:05:00,
2013-02-26 17:10:00,39.2,37.3,29.77,North,359,3.0,5.0,93,0.16,,---,0.76,VWS V14.01,2013-02-26 22:10:00,
2013-02-26 17:15:00,39.3,37.5,29.78,WNW,302,1.0,3.0,93,0.15,,---,0.77,VWS V14.01,2013-02-26 22:15:00,
2013-02-26 17:20:00,39.4,37.5,29.77,North,9,1.0,4.0,93,0.17,,---,0.79,VWS V14.01,2013-02-26 22:20:00,
2013-02-26 17:25:00,39.4,37.5,29.77,NE,52,1.0,4.0,93,0.17,,---,0.79,VWS V14.01,2013-02-26 22:25:00,
2013-02-26 17:30:00,39.4,37.5,29.77,NE,52,0.0,0.0,93,0.14,,---,0.79,VWS V14.01,2013-02-26 22:30:00,
2013-02-26 17:35:00,39.4,37.8,29.77,NNE,19,0.0,3.0,94,0.15,,---,0.80,VWS V14.01,2013-02-26 22:35:00,
2013-02-26 17:40:00,39.4,37.8,29.76,NNE,21,2.0,3.0,94,0.15,,---,0.80,VWS V14.01,2013-02-26 22:40:00,
2013-02-26 17:45:00,39.4,37.8,29.76,North,11,1.0,3.0,94,0.07,,---,0.80,VWS V14.01,2013-02-26 22:45:00,
2013-02-26 17:50:00,39.4,37.8,29.75,North,11,0.0,3.0,94,0.08,,---,0.81,VWS V14.01,2013-02-26 22:50:00,
2013-02-26 17:55:00,39.5,37.9,29.75,NNE,26,3.0,3.0,94,0.08,,---,0.81,VWS V14.01,2013-02-26 22:55:00,
2013-02-26 18:00:00,39.5,37.9,29.75,NNE,20,3.0,4.0,94,0.06,,---,0.81,VWS V14.01,2013-02-26 23:00:00,
2013-02-26 18:05:00,39.5,37.9,29.74,NE,41,1.0,5.0,94,0.06,,---,0.81,VWS V14.01,2013-02-26 23:05:00,
2013-02-26 18:10:00,39.6,38.0,29.74,North,350,2.0,5.0,94,0.06,,---,0.81,VWS V14.01,2013-02-26 23:10:00,
2013-02-26 18:15:00,39.6,38.0,29.74,North,2,1.0,2.0,94,0.04,,---,0.81,VWS V14.01,2013-02-26 23:15:00,
2013-02-26 18:20:00,39.6,38.0,29.73,North,360,0.0,2.0,94,0.04,,---,0.81,VWS V14.01,2013-02-26 23:20:00,
2013-02-26 18:25:00,39.6,38.0,29.73,NNW,341,0.0,2.0,94,0.04,,---,0.81,VWS V14.01,2013-02-26 23:25:00,
2013-02-26 18:30:00,39.7,38.1,29.73,East,87,0.0,0.0,94,0.02,,---,0.81,VWS V14.01,2013-02-26 23:30:00,
2013-02-26 18:35:00,39.7,38.1,29.73,SSE,156,0.0,2.0,94,0.02,,---,0.81,VWS V14.01,2013-02-26 23:35:00,
2013-02-26 18:40:00,39.8,38.2,29.73,SW,217,0.0,2.0,94,0.02,,---,0.81,VWS V14.01,2013-02-26 23:40:00,
2013-02-26 18:45:00,39.9,38.3,29.73,SW,217,0.0,0.0,94,0.01,,---,0.81,VWS V14.01,2013-02-26 23:45:00,
2013-02-26 18:50:00,39.9,38.3,29.73,WNW,285,1.0,3.0,94,0.01,,---,0.81,VWS V14.01,2013-02-26 23:50:00,
2013-02-26 18:55:00,40.0,38.4,29.73,WNW,282,3.0,3.0,94,0.01,,---,0.81,VWS V14.01,2013-02-26 23:55:00,
2013-02-26 19:00:00,40.2,38.9,29.73,NNW,343,0.0,1.0,95,0.00,,---,0.81,VWS V14.01,2013-02-27 00:00:00,
2013-02-26 19:05:00,40.2,38.9,29.72,NNW,343,0.0,1.0,95,0.00,,---,0.81,VWS V14.01,2013-02-27 00:05:00,
2013-02-26 19:10:00,40.2,38.9,29.72,NNW,343,0.0,1.0,95,0.00,,---,0.81,VWS V14.01,2013-02-27 00:10:00,
2013-02-26 19:15:00,40.2,38.9,29.73,NNW,343,1.0,2.0,95,0.00,,---,0.81,VWS V14.01,2013-02-27 00:15:00,
2013-02-26 19:20:00,40.4,39.1,29.74,NNW,343,0.0,2.0,95,0.00,,---,0.81,VWS V14.01,2013-02-27 00:20:00,
2013-02-26 19:25:00,40.5,39.2,29.75,SSW,200,2.0,3.0,95,0.00,,---,0.81,VWS V14.01,2013-02-27 00:25:00,
2013-02-26 19:30:00,40.7,39.4,29.74,ESE,102,0.0,1.0,95,0.00,,---,0.81,VWS V14.01,2013-02-27 00:30:00,
2013-02-26 19:35:00,40.9,39.6,29.73,ESE,102,0.0,1.0,95,0.00,,---,0.81,VWS V14.01,2013-02-27 00:35:00,
2013-02-26 19:40:00,40.9,39.6,29.73,ESE,102,0.0,1.0,95,0.00,,---,0.81,VWS V14.01,2013-02-27 00:40:00,
2013-02-26 19:45:00,40.9,39.6,29.73,WNW,286,2.0,3.0,95,0.00,,---,0.81,VWS V14.01,2013-02-27 00:45:00,
2013-02-26 19:50:00,40.9,39.6,29.73,NNE,14,1.0,4.0,95,0.00,,---,0.81,VWS V14.01,2013-02-27 00:50:00,
2013-02-26 19:55:00,40.8,39.5,29.73,NNE,14,0.0,4.0,95,0.00,,---,0.81,VWS V14.01,2013-02-27 00:55:00,
2013-02-26 20:00:00,40.8,39.5,29.73,NNE,14,0.0,0.0,95,0.00,,---,0.81,VWS V14.01,2013-02-27 01:00:00,
2013-02-26 20:05:00,40.8,39.5,29.72,NNE,14,0.0,0.0,95,0.00,,---,0.81,VWS V14.01,2013-02-27 01:05:00,
2013-02-26 20:10:00,40.7,39.4,29.72,NNE,14,0.0,0.0,95,0.00,,---,0.81,VWS V14.01,2013-02-27 01:10:00,
2013-02-26 20:15:00,40.7,39.4,29.73,NNE,14,0.0,0.0,95,0.01,,---,0.82,VWS V14.01,2013-02-27 01:15:00,
2013-02-26 20:20:00,40.7,39.4,29.73,SSE,167,2.0,5.0,95,0.01,,---,0.82,VWS V14.01,2013-02-27 01:20:00,
2013-02-26 20:25:00,40.6,39.3,29.73,SSE,166,0.0,5.0,95,0.01,,---,0.82,VWS V14.01,2013-02-27 01:25:00,
2013-02-26 20:30:00,40.4,39.1,29.74,SSW,196,4.0,4.0,95,0.01,,---,0.82,VWS V14.01,2013-02-27 01:30:00,
2013-02-26 20:35:00,40.2,38.9,29.74,SSW,204,2.0,4.0,95,0.01,,---,0.82,VWS V14.01,2013-02-27 01:35:00,
2013-02-26 20:40:00,40.2,38.9,29.74,South,182,0.0,4.0,95,0.01,,---,0.82,VWS V14.01,2013-02-27 01:40:00,
2013-02-26 20:45:00,40.1,38.8,29.75,ESE,120,1.0,2.0,95,0.01,,---,0.82,VWS V14.01,2013-02-27 01:45:00,
2013-02-26 20:50:00,40.1,38.8,29.75,ESE,120,0.0,2.0,95,0.01,,---,0.82,VWS V14.01,2013-02-27 01:50:00,
2013-02-26 20:55:00,40.1,38.8,29.75,SE,133,1.0,2.0,95,0.01,,---,0.82,VWS V14.01,2013-02-27 01:55:00,
2013-02-26 21:00:00,40.1,38.8,29.75,SE,134,0.0,0.0,95,0.01,,---,0.82,VWS V14.01,2013-02-27 02:00:00,
2013-02-26 21:05:00,40.0,38.7,29.74,SE,134,0.0,0.0,95,0.01,,---,0.82,VWS V14.01,2013-02-27 02:05:00,
2013-02-26 21:10:00,40.0,38.7,29.74,SE,134,0.0,0.0,95,0.01,,---,0.82,VWS V14.01,2013-02-27 02:10:00,
2013-02-26 21:15:00,39.9,38.6,29.74,SE,134,0.0,0.0,95,0.00,,---,0.82,VWS V14.01,2013-02-27 02:15:00,
2013-02-26 21:20:00,39.9,38.6,29.75,SE,134,0.0,0.0,95,0.00,,---,0.82,VWS V14.01,2013-02-27 02:20:00,
2013-02-26 21:25:00,39.8,38.5,29.74,SE,134,0.0,0.0,95,0.00,,---,0.82,VWS V14.01,2013-02-27 02:25:00,
2013-02-26 21:30:00,39.8,38.5,29.75,SE,134,0.0,0.0,95,0.00,,---,0.82,VWS V14.01,2013-02-27 02:30:00,
2013-02-26 21:35:00,39.8,38.5,29.74,South,169,1.0,1.0,95,0.00,,---,0.82,VWS V14.01,2013-02-27 02:35:00,
2013-02-26 21:40:00,39.7,38.4,29.74,SSE,167,0.0,1.0,95,0.00,,---,0.82,VWS V14.01,2013-02-27 02:40:00,
2013-02-26 21:45:00,39.7,38.4,29.74,SSE,167,0.0,0.0,95,0.00,,---,0.82,VWS V14.01,2013-02-27 02:45:00,
2013-02-26 21:50:00,39.6,38.3,29.74,SSE,167,0.0,0.0,95,0.00,,---,0.82,VWS V14.01,2013-02-27 02:50:00,
2013-02-26 21:55:00,39.6,38.3,29.74,SSE,167,0.0,0.0,95,0.00,,---,0.82,VWS V14.01,2013-02-27 02:55:00,
2013-02-26 22:00:00,39.6,38.3,29.74,SSE,167,0.0,0.0,95,0.00,,---,0.82,VWS V14.01,2013-02-27 03:00:00,
2013-02-26 22:05:00,39.6,38.3,29.73,SSE,167,0.0,0.0,95,0.00,,---,0.82,VWS V14.01,2013-02-27 03:05:00,
2013-02-26 22:10:00,39.6,38.3,29.73,SSE,164,0.0,1.0,95,0.00,,---,0.82,VWS V14.01,2013-02-27 03:10:00,
2013-02-26 22:15:00,39.5,38.2,29.73,SSE,164,0.0,0.0,95,0.00,,---,0.82,VWS V14.01,2013-02-27 03:15:00,
2013-02-26 22:20:00,39.5,38.2,29.73,SSE,164,1.0,2.0,95,0.00,,---,0.82,VWS V14.01,2013-02-27 03:20:00,
2013-02-26 22:25:00,39.6,38.3,29.73,SSE,164,0.0,2.0,95,0.00,,---,0.82,VWS V14.01,2013-02-27 03:25:00,
2013-02-26 22:30:00,39.6,38.3,29.73,SSE,164,0.0,0.0,95,0.00,,---,0.82,VWS V14.01,2013-02-27 03:30:00,
2013-02-26 22:35:00,39.6,38.3,29.73,SSE,164,0.0,1.0,95,0.00,,---,0.82,VWS V14.01,2013-02-27 03:35:00,
2013-02-26 22:40:00,39.6,38.3,29.73,SSE,164,0.0,1.0,95,0.00,,---,0.82,VWS V14.01,2013-02-27 03:40:00,
2013-02-26 22:45:00,39.6,38.3,29.73,SSE,164,0.0,0.0,95,0.00,,---,0.82,VWS V14.01,2013-02-27 03:45:00,
2013-02-26 22:50:00,39.6,38.6,29.72,SSE,164,0.0,0.0,96,0.00,,---,0.82,VWS V14.01,2013-02-27 03:50:00,
2013-02-26 22:55:00,39.6,38.6,29.73,SSE,164,0.0,1.0,96,0.00,,---,0.82,VWS V14.01,2013-02-27 03:55:00,
2013-02-26 23:00:00,39.6,38.6,29.74,SSE,164,0.0,0.0,96,0.00,,---,0.82,VWS V14.01,2013-02-27 04:00:00,
2013-02-26 23:05:00,39.6,38.6,29.74,South,175,0.0,0.0,96,0.00,,---,0.82,VWS V14.01,2013-02-27 04:05:00,
2013-02-26 23:10:00,39.6,38.6,29.73,South,175,0.0,0.0,96,0.00,,---,0.82,VWS V14.01,2013-02-27 04:10:00,
2013-02-26 23:15:00,39.6,38.6,29.73,South,175,0.0,0.0,96,0.00,,---,0.82,VWS V14.01,2013-02-27 04:15:00,
2013-02-26 23:20:00,39.5,38.5,29.73,South,175,0.0,0.0,96,0.00,,---,0.82,VWS V14.01,2013-02-27 04:20:00,
2013-02-26 23:25:00,39.5,38.5,29.72,South,175,0.0,0.0,96,0.00,,---,0.82,VWS V14.01,2013-02-27 04:25:00,
2013-02-26 23:30:00,39.5,38.5,29.72,South,175,0.0,0.0,96,0.00,,---,0.82,VWS V14.01,2013-02-27 04:30:00,
2013-02-26 23:35:00,39.6,38.6,29.71,South,175,0.0,0.0,96,0.00,,---,0.82,VWS V14.01,2013-02-27 04:35:00,
2013-02-26 23:40:00,39.6,38.6,29.71,South,175,0.0,0.0,96,0.00,,---,0.82,VWS V14.01,2013-02-27 04:40:00,
2013-02-26 23:45:00,39.6,38.6,29.71,South,175,0.0,0.0,96,0.00,,---,0.82,VWS V14.01,2013-02-27 04:45:00,
2013-02-26 23:50:00,39.6,38.6,29.71,South,175,0.0,2.0,96,0.00,,---,0.82,VWS V14.01,2013-02-27 04:50:00,
2013-02-26 23:55:00,39.6,38.6,29.71,South,175,0.0,2.0,96,0.00,,---,0.82,VWS V14.01,2013-02-27 04:55:00,